Terminal Aerodrome Forecast
Issued by NWS Dodge City, KS

Home | Current Version | Previous Version | Graphics & Text | Print | Product List | Glossary Off
Versions: 1 2 3 4 5 6 7 8 9 10 11 12 13 14 15 16 17 18 19 20 21 22 23 24 25 26 27 28 29 30 31 32 33 34 35 36 37 38

000
FTUS43 KDDC 282001 AAC
TAFDDC
TAF AMD
KDDC 282001Z 2820/2918 35010KT P6SM BKN035
     FM282300 VRB20KT P6SM VCTS BKN060CB
     FM290300 VRB06KT P6SM SCT030=

USA.gov is the U.S. government's official web portal to all federal, state and local government web resources and services.